Chemroad Wing — 3EAB8 — position and weather

sailwx.info

Track history (hours):
 
Tides and Currents Weather Stations Pressure Air Temp Water Temp Dewpoint Dewpoint Depression Visibility Wind Speed Wind Dir Waves Ship Positions

Chemroad Wing

Last reported at 2014-Jul-27 19:22 UTC. Time now 2014-Jul-30 05:06 UTC.
Position N 29°22' E 032°38'.

Length 170 m; draft 11.5 m.

Type: Ship (hazmat cat C). MMSI: 357740000.

Date/timePositionNaut miles runAvg speedWind from/ knotsBaromVisibWave heightAir tempDewpointWater temp
2014-Jul-27 19:22N 29°22' E 032°38'  
2014-Jul-23 17:33N 35°51' E 015°25'1313.2
2014-Jul-23 16:33N 35°56' E 015°10'1313.4
2014-Jul-23 15:33N 36°01' E 014°55'1313.4
2014-Jul-23 14:33N 36°06' E 014°39'1313.2
2014-Jul-23 13:33N 36°11' E 014°24'1413.2
2014-Jul-23 12:30N 36°16' E 014°08'1313.5
2014-Jul-23 11:33N 36°22' E 013°54'47712.8
2014-Jul-21 22:15N 37°13' E 004°01'1113.8
2014-Jul-21 21:27N 37°11' E 003°48'1714.1
2014-Jul-21 20:15N 37°09' E 003°26'1012.9
2014-Jul-21 19:30N 37°07' E 003°15'3314.5
2014-Jul-21 17:12N 37°02' E 002°33'1314.1
2014-Jul-21 16:18N 36°60' E 002°18'1513.9
2014-Jul-21 15:14N 36°57' E 001°60'1112.9
2014-Jul-21 14:22N 36°54' E 001°46'  
Track history (hours):
 
Tides and Currents Weather Stations Pressure Air Temp Water Temp Dewpoint Dewpoint Depression Visibility Wind Speed Wind Dir Waves Ship Positions

Chemroad Wing

Last reported at 2014-Jul-27 19:22 UTC. Time now 2014-Jul-30 05:06 UTC.
Position N 29°22' E 032°38'.

Length 170 m; draft 11.5 m.

Type: Ship (hazmat cat C). MMSI: 357740000.

Date/timePositionNaut miles runAvg speedWind from/ knotsBaromVisibWave heightAir tempDewpointWater temp
2014-Jul-27 19:22N 29°22' E 032°38'  
2014-Jul-23 17:33N 35°51' E 015°25'1313.2
2014-Jul-23 16:33N 35°56' E 015°10'1313.4
2014-Jul-23 15:33N 36°01' E 014°55'1313.4
2014-Jul-23 14:33N 36°06' E 014°39'1313.2
2014-Jul-23 13:33N 36°11' E 014°24'1413.2
2014-Jul-23 12:30N 36°16' E 014°08'1313.5
2014-Jul-23 11:33N 36°22' E 013°54'47712.8
2014-Jul-21 22:15N 37°13' E 004°01'1113.8
2014-Jul-21 21:27N 37°11' E 003°48'1714.1
2014-Jul-21 20:15N 37°09' E 003°26'1012.9
2014-Jul-21 19:30N 37°07' E 003°15'3314.5
2014-Jul-21 17:12N 37°02' E 002°33'1314.1
2014-Jul-21 16:18N 36°60' E 002°18'1513.9
2014-Jul-21 15:14N 36°57' E 001°60'1112.9
2014-Jul-21 14:22N 36°54' E 001°46'  

Dump ship's entire track history